Regional Weather Roundup
Issued by NWS State College, PA

Home | Current Version | Previous Version | Text Only | Print | Product List | Glossary On
Versions: 1 2 3 4 5 6 7 8 9 10 11 12 13 14 15 16 17 18 19 20 21 22 23 24 25 26 27 28 29 30 31 32 33 34 35 36 37 38 39 40 41 42 43 44 45 46 47 48 49 50
000
ASUS41 KCTP 290703
RWRCTP

REGIONAL WEATHER ROUNDUP
NATIONAL WEATHER SERVICE STATE COLLEGE PA
300 AM EDT SUN MAR 29 2015

Note: "fair" indicates few or no clouds below 12,000 feet with no
significant weather and/or obstructions to visibility.

* = STATION THAT DOES NOT REPORT PRECIPITATION /E.G. RAIN...SNOW...ETC/
    THUNDER OR FOG.

PAZ002>004-007>009-013>016-020>023-029>032-290800-
WESTERN PENNSYLVANIA

CITY           SKY/WX    TMP DP  RH WIND       PRES   REMARKS
ERIE           CLEAR     17  10  74 S5        30.30F WCI  10
MEADVILLE      CLEAR     17  11  77 W5        30.26S WCI  10
FRANKLIN*      CLEAR     14   7  73 W6        30.26F WCI   5
NEW CASTLE     FAIR      16  11  80 CALM      30.32S
BEAVER COUNTY  NOT AVBL
BUTLER*        CLEAR     16   7  67 CALM      30.30S
PITTSBURGH INT CLEAR     17   8  67 W3        30.30R
PITTSBURGH     CLEAR     18   5  57 W7        30.29S WCI   9
INDIANA*       CLEAR     14   9  79 CALM      30.31R
LATROBE        CLEAR     14   7  73 SW6       30.32S WCI   5
WASHINGTON CO* CLEAR     12   3  67 CALM      30.32S
$$

PAZ004>006-010>012-017>019-024>028-033>037-041-042-045-046-049>053-290800-
CENTRAL PENNSYLVANIA

CITY           SKY/WX    TMP DP  RH WIND       PRES   REMARKS
BRADFORD       CLEAR     13   8  81 NW6       30.17R WCI   4
DUBOIS         CLEAR     14   6  70 W6        30.21R WCI   5
CLEARFIELD     CLEAR     16   7  67 W6        30.23S WCI   7
JOHNSTOWN      CLEAR     15   5  64 W13       30.18R WCI   1
ALTOONA        CLEAR     18   6  59 VRB3      30.24R
STATE COLLEGE  CLEAR     19   8  62 W6        30.23S WCI  10
WILLIAMSPORT   CLEAR     20   5  52 W6        30.24R WCI  12
SELINSGROVE    CLEAR     23   7  50 NW8       30.25S WCI  14
FT INDIANTOWN  CLEAR     24   2  39 W8        30.22S
CAPITAL CITY   CLEAR     24   4  42 W8        30.25S
HARRISBURG     CLEAR     26   5  40 NW15      30.24S WCI  14
YORK           CLEAR     23   6  48 W6        30.24S
$$

PAZ038>040-043-044-047-048-054-055-060>062-067>071-290800-
EASTERN PENNSYLVANIA

CITY           SKY/WX    TMP DP  RH WIND       PRES   REMARKS
SCRANTON       CLOUDY    20   5  52 VRB5      30.17R WCI  13
MOUNT POCONO   CLEAR     16   4  59 NW15G25   30.05S WCI   1
ALLENTOWN      PTCLDY    24   6  46 NW12      30.19R WCI  13
QUAKERTOWN*    MOSUNNY   23   7  50 N15G23    30.18S WCI  10
READING        CLEAR     24   4  42 NW10      30.21R WCI  14
LANCASTER      CLEAR     24   6  46 NW9       30.22R WCI  14
COATESVILLE    SUNNY     25   5  42 NW12G17   30.19S WCI  14
POTTSTOWN      CLEAR     23   5  46 NW6       30.21R
BLUE BELL      PTCLDY    27   9  46 NW7       30.18S
DOYLESTOWN     CLOUDY    24   6  46 NW9G16    30.16S WCI  14
WILLOW GROVE   NOT AVBL
NORTH PHILA    CLOUDY    27   4  37 NW8       30.20S
PHILADELPHIA   MOCLDY    27   4  37 NW14      30.21S
$$


USA.gov is the U.S. government's official web portal to all federal, state and local government web resources and services.